Theta_e
322 322 321 320 319 319 319 319 320 319 319 319 319 319 318 319 319 320 320 320 319 318 319 319 319 320 319 320 320 320 321 321 321 322 322 322 323 324 324 325 325 324
319 319 319 319 318 318 318 318 318 318 317 318 318 318 319 318 318 318 318 318 318 317 317 316 317 316 316 316 316 317 317 317 317 318 317 318 320 322 322 323 323 323
317 317 317 316 315 316 317 318 318 317 316 316 317 317 316 317 317 317 316 316 315 315 314 315 314 314 314 314 314 315 314 314 314 314 314 315 316 317 318 319 320 321
315 315 316 316 316 315 316 317 317 317 316 315 315 315 315 315 315 315 315 314 314 313 314 314 314 313 313 313 314 313 313 313 312 312 312 314 315 314 315 316 317 317
315 315 315 315 315 315 316 314 314 314 314 314 315 315 314 314 314 313 313 312 313 312 313 313 313 312 312 312 313 312 312 311 312 312 311 312 313 314 314 314 315 315
315 315 315 314 315 315 314 313 313 313 312 313 313 314 313 313 311 311 311 311 311 311 311 312 311 311 312 312 312 311 311 311 311 311 311 311 312 313 313 314 314 314
314 314 314 314 314 314 314 313 313 313 312 313 313 312 312 311 310 310 310 311 310 310 310 311 310 311 311 311 311 310 310 310 310 310 310 311 312 312 313 313 313 313
313 314 313 313 313 313 313 312 312 312 313 313 312 311 311 310 310 310 310 310 310 310 310 310 310 310 310 310 309 309 309 309 309 310 310 310 311 311 312 313 314 313
313 313 312 313 312 312 312 311 311 312 312 312 311 311 311 310 310 310 310 310 309 309 309 308 308 308 309 309 309 308 307 308 309 309 309 309 310 310 311 312 312 313
312 312 312 312 312 311 311 311 311 311 311 311 310 311 310 310 310 310 309 309 308 308 307 307 306 307 307 308 307 307 307 308 308 308 309 309 310 310 310 310 311 310
311 311 311 311 311 311 311 311 311 310 310 309 310 309 310 310 310 309 308 307 307 306 306 305 305 305 305 305 307 308 308 308 308 308 309 309 310 309 310 309 309 308
310 310 310 310 310 310 310 310 310 310 310 309 309 309 309 309 308 308 307 306 306 305 305 305 305 304 304 304 305 307 308 308 308 309 309 308 309 309 309 309 308 308
309 309 309 309 309 309 309 309 309 309 309 308 308 308 308 307 307 307 307 306 305 305 304 304 304 303 302 303 303 305 306 307 307 308 308 308 308 308 308 308 308 307
308 308 308 308 308 308 308 308 308 308 308 308 308 307 307 306 306 306 306 306 306 305 305 304 304 302 301 300 301 303 306 306 306 307 306 307 308 307 308 307 307 306
308 308 308 308 307 307 307 307 307 307 307 307 307 307 307 306 306 306 306 305 305 305 304 304 303 301 299 298 299 301 305 305 305 305 306 305 305 305 306 305 305 305
306 307 306 307 306 306 306 307 307 307 306 306 306 306 306 306 306 306 306 305 304 304 305 304 302 300 296 294 295 298 303 304 305 305 305 305 304 303 303 304 304 304
306 306 306 305 306 306 306 305 305 306 305 305 305 306 306 306 306 306 306 305 304 304 304 303 302 298 293 292 292 293 299 304 304 304 304 304 303 302 301 302 302 302
305 305 304 304 304 304 305 305 305 305 304 305 305 305 306 307 306 305 305 306 305 304 303 303 301 294 291 292 292 291 294 302 305 304 303 303 302 302 301 301 301 301
304 304 303 303 303 304 305 304 304 304 304 304 304 305 306 305 305 305 305 305 305 304 303 302 300 293 291 292 292 291 292 297 304 303 302 302 302 301 302 301 300 300
303 303 303 303 303 304 304 303 303 303 305 305 305 305 305 305 305 305 304 304 304 304 303 302 299 293 291 291 292 291 291 294 305 303 303 302 301 301 301 301 300 299
302 303 302 302 303 303 304 303 304 304 304 304 304 304 304 303 303 304 304 304 304 304 304 302 299 291 291 291 291 291 290 295 305 303 303 303 302 302 301 301 300 299
301 301 302 302 302 302 303 303 303 304 303 304 304 304 304 304 304 303 303 303 303 304 303 302 299 291 291 291 291 291 291 304 303 303 302 301 301 301 301 301 300 299
300 300 301 301 302 302 302 303 303 303 304 304 303 304 303 303 303 303 303 303 302 303 303 301 300 294 290 291 291 290 296 304 303 302 301 301 301 301 301 301 300 299
300 300 300 301 302 302 302 302 303 303 303 304 303 303 302 303 303 303 303 303 302 301 302 301 300 296 291 291 291 290 294 303 302 301 302 301 301 301 301 301 300 299
300 301 301 301 301 302 302 302 302 302 303 304 303 303 303 303 303 303 303 303 303 301 299 301 301 298 292 291 291 291 295 303 301 301 300 300 300 300 301 300 300 300
301 301 301 301 301 302 302 302 303 303 303 303 303 303 302 302 302 303 302 302 303 302 301 301 301 300 297 290 291 291 291 299 301 299 299 299 300 299 299 300 300 301
Wind_Speed
4 4 4 4 4 4 4 4 4 5 4 4 5 5 5 6 7 7 7 7 7 7 9 9 9 9 9 9 10 9 8 9 9 8 9 9 9 10 10 11 11 10
5 5 4 4 4 4 4 4 5 5 5 5 5 5 6 6 7 7 8 8 8 8 8 8 9 9 9 8 9 8 8 8 9 8 9 11 10 10 10 11 11 10
5 6 6 6 6 6 6 6 5 6 6 6 6 6 6 6 7 7 8 8 7 8 8 8 8 8 9 9 9 8 8 9 9 10 10 10 9 9 10 10 9 11
6 6 7 7 7 7 6 6 6 6 6 6 7 6 6 6 7 8 8 8 7 7 7 7 8 8 9 9 9 8 9 8 9 10 9 9 9 9 10 9 10 11
7 7 7 8 8 8 7 8 7 7 7 7 7 7 7 7 7 7 7 7 7 7 7 8 8 9 9 9 9 8 8 8 9 10 9 9 9 9 9 9 11 11
8 8 8 8 6 7 7 7 7 7 7 7 7 6 8 8 8 7 7 7 7 7 8 8 9 9 9 9 9 9 8 8 9 10 10 10 10 9 9 10 11 11
9 9 8 7 7 7 7 7 7 6 7 6 7 8 8 8 8 7 7 7 8 8 9 9 9 9 8 8 9 10 9 9 10 10 11 10 10 11 11 10 10 11
9 8 7 6 7 7 7 8 7 7 6 6 8 8 7 8 8 7 7 8 8 9 9 9 10 10 10 9 9 10 10 8 9 11 11 11 10 11 12 10 11 12
8 8 8 7 8 7 8 8 8 8 7 7 7 7 7 8 8 8 8 8 9 9 9 10 10 10 9 9 9 10 10 10 10 11 11 12 12 12 12 12 12 12
9 9 8 7 8 8 9 9 8 8 8 8 8 7 8 7 8 8 8 9 9 9 10 10 11 10 10 10 10 10 11 11 11 11 11 11 12 12 12 12 13 13
9 8 8 8 9 8 9 9 9 8 8 9 8 8 8 7 7 8 8 9 9 10 10 11 11 11 12 12 11 10 11 11 11 11 11 12 11 12 12 12 12 13
9 9 9 9 9 9 9 9 9 9 9 8 8 9 8 8 9 8 8 9 10 10 11 11 11 12 12 12 12 11 11 11 10 11 11 11 11 12 12 12 12 13
9 9 8 9 9 9 9 9 10 9 10 9 8 9 9 9 9 9 8 9 10 10 11 12 12 13 13 13 12 11 11 11 11 11 12 11 11 13 13 13 13 13
9 9 9 9 9 9 10 10 10 10 9 9 8 9 9 9 8 8 8 8 9 10 11 11 12 13 14 14 12 11 10 10 11 11 12 12 12 13 13 13 14 14
8 8 8 9 10 10 10 10 10 9 9 9 9 8 7 8 8 9 9 9 10 10 11 11 11 11 13 14 13 11 9 10 11 11 12 12 13 13 13 14 14 14
9 9 9 9 9 10 10 9 9 9 9 9 9 8 8 8 8 8 8 9 10 10 10 10 11 10 17 20 15 10 9 9 10 11 12 12 13 14 14 14 15 14
8 9 9 9 9 9 9 10 10 8 8 9 8 8 8 8 8 9 8 8 9 10 11 10 10 12 18 17 17 17 11 10 11 11 12 13 13 14 14 15 15 15
9 9 9 9 9 9 9 9 9 9 8 8 7 8 8 7 8 8 8 8 7 9 11 11 11 17 18 19 17 18 15 11 9 11 11 12 13 14 13 14 15 15
9 9 9 9 9 9 8 8 8 8 8 7 8 7 8 9 8 8 8 8 8 9 11 12 13 17 17 18 17 18 18 15 8 12 12 12 13 14 14 15 15 15
9 9 9 9 9 8 8 8 7 7 6 6 6 7 8 8 8 9 8 8 8 8 9 11 14 16 16 18 17 18 18 16 9 12 12 12 14 14 13 15 16 16
9 9 9 9 9 8 8 7 6 6 6 6 6 7 7 8 8 9 8 8 8 8 8 10 11 18 17 18 19 19 20 15 12 11 12 12 13 14 14 15 15 15
9 9 9 8 8 8 7 6 6 6 6 6 6 6 7 7 7 8 9 10 9 8 9 10 12 18 17 18 19 19 21 6 10 11 13 13 13 14 14 13 14 15
9 9 9 8 8 7 6 6 6 6 5 5 6 7 7 8 7 8 8 9 10 10 9 10 12 16 17 17 18 20 16 8 10 11 13 13 13 13 13 13 12 12
9 9 9 8 7 7 6 5 5 5 5 5 6 7 7 7 7 7 8 9 11 11 10 10 11 14 15 16 18 20 18 10 9 11 13 13 13 13 13 13 13 15
9 9 9 8 7 7 6 6 5 5 5 5 6 6 6 6 6 7 7 8 10 11 12 11 10 12 14 15 17 19 17 9 11 11 12 13 13 13 13 12 13 14
9 9 8 8 7 6 6 5 5 6 6 6 6 6 6 6 6 7 8 8 8 9 10 11 10 11 13 15 16 17 19 12 10 10 12 14 14 13 13 13 13 14
Wind_Direction
71 82 80 79 72 69 67 61 62 61 51 48 46 46 40 36 24 23 21 21 19 10 7 3 1 358 353 353 354 342 346 344 340 342 337 330 322 321 319 323 324 317
68 72 81 81 78 76 76 68 66 64 62 54 49 47 45 35 31 25 25 18 21 20 12 10 6 3 360 360 355 355 355 353 350 352 339 338 334 330 327 327 320 323
72 75 78 82 85 85 82 79 76 70 65 58 54 48 45 38 34 34 32 27 27 21 19 13 5 6 1 3 360 0 358 354 354 349 345 344 344 343 339 332 330 327
80 84 87 89 89 85 82 83 81 75 68 64 56 53 51 45 42 38 37 32 24 20 15 11 9 9 4 5 4 3 358 357 358 350 347 344 346 345 342 340 337 332
94 91 88 89 87 82 76 72 68 67 70 69 70 65 59 55 49 42 37 30 23 18 15 13 11 11 7 9 6 5 359 357 358 354 352 349 348 346 343 339 337 335
90 89 88 86 79 78 76 75 74 76 72 68 62 64 59 52 47 43 36 28 27 20 19 15 14 12 10 6 8 7 358 358 357 355 354 354 351 350 347 342 339 337
94 92 85 79 79 78 78 75 75 73 72 71 68 61 59 56 53 44 37 30 27 23 18 17 11 12 11 6 11 5 358 355 353 353 353 354 349 349 349 344 340 335
93 88 83 77 80 79 77 76 71 71 76 78 76 70 63 61 56 48 37 34 28 24 23 17 13 12 7 8 11 6 0 356 350 351 354 351 348 348 347 347 340 338
95 91 88 85 83 80 77 75 74 73 73 76 76 77 67 58 54 50 43 36 34 31 24 19 15 10 7 3 9 7 0 358 353 352 350 347 348 348 347 343 343 340
92 90 88 85 82 77 75 72 71 72 72 71 69 69 70 62 57 53 47 41 38 33 29 24 16 12 7 3 5 4 3 359 357 355 352 350 349 348 346 344 345 343
93 89 87 82 79 77 74 74 71 70 68 70 72 71 66 66 62 55 51 47 41 34 31 25 19 12 8 2 1 358 3 1 358 355 355 354 353 349 350 349 347 344
91 88 84 81 80 78 75 72 72 70 71 68 68 72 70 65 64 56 51 52 45 38 31 26 21 14 8 2 358 355 0 2 359 356 356 355 353 353 352 353 350 349
87 85 83 81 78 77 77 75 71 69 68 68 67 66 68 68 64 64 58 51 48 40 34 28 23 17 9 1 357 355 3 2 2 360 357 358 356 354 356 355 354 353
89 87 83 81 81 79 76 75 74 71 68 67 66 64 63 63 62 63 61 54 47 44 37 29 24 20 12 1 356 359 360 6 5 3 0 1 358 358 359 357 356 356
93 88 87 86 83 81 79 76 73 70 69 69 67 67 61 60 61 59 57 55 51 45 39 32 26 21 14 3 0 2 359 6 9 4 4 3 359 360 358 358 358 355
97 94 89 86 84 82 80 78 76 73 70 67 64 63 63 60 61 57 55 53 50 44 40 35 28 23 1 357 354 354 352 3 13 9 8 7 3 2 358 359 360 355
98 94 93 88 86 84 82 80 76 75 71 68 65 61 61 61 56 57 52 49 49 45 39 36 31 13 355 358 349 344 339 347 20 12 12 11 8 6 1 358 358 354
100 98 92 89 87 83 81 79 79 76 73 68 65 63 60 59 57 53 53 50 48 48 43 35 30 12 358 358 349 342 338 330 17 16 15 14 9 8 4 2 357 351
103 99 96 92 87 84 81 80 78 77 73 70 66 63 62 58 54 52 51 49 47 49 45 35 27 10 356 358 348 341 336 326 25 20 19 18 12 10 8 5 360 353
105 102 98 93 89 85 83 81 78 75 75 71 72 67 63 61 56 51 48 47 43 44 48 39 27 7 359 357 350 341 337 323 34 22 23 20 16 14 11 7 5 359
109 106 100 94 88 84 82 80 78 80 74 71 68 62 61 58 53 53 48 45 44 43 47 44 31 10 5 358 354 343 337 316 33 24 25 22 19 15 14 11 8 1
109 106 101 97 94 92 89 85 82 77 76 74 73 72 68 67 62 56 53 49 42 41 46 43 35 18 5 2 353 351 327 1 25 27 24 24 21 15 16 14 11 5
108 103 100 99 98 97 94 90 86 80 74 75 76 70 69 69 68 60 55 52 45 40 43 46 39 21 10 5 357 355 338 29 23 29 27 23 23 16 17 17 16 18
105 104 104 102 101 100 98 95 89 83 78 66 70 73 72 70 71 68 63 57 53 45 33 47 45 32 15 8 3 2 346 19 22 26 27 22 20 20 19 17 21 44
102 102 102 103 102 101 98 96 88 82 82 80 80 82 77 75 67 67 65 61 60 57 38 41 47 40 24 13 11 7 358 8 28 27 25 24 20 20 20 16 14 27
101 101 102 103 104 101 96 93 91 86 78 75 75 75 76 75 72 68 65 62 60 61 55 41 39 42 33 18 17 13 4 355 35 27 21 25 23 21 20 19 19 14